Weather History for Lafayette, IN

Change the Weather History Date:

Tuesday, March 5, 2013

  Actual Average Record
Temperature  
Mean Temperature 32 °F 36 °F  
Max Temperature 35 °F 45 °F 76 °F (1983)
Min Temperature 28 °F 28 °F -2 °F (1978)
Degree Days  
Heating Degree Days 33 28  
Month to date heating degree days 179 146  
Since 1 July heating degree days 4514 4480  
Cooling Degree Days 0 0  
Month to date cooling degree days 0 0  
Year to date cooling degree days 0 0  
Moisture  
Dew Point 28 °F    
Average Humidity 85    
Maximum Humidity 100    
Minimum Humidity 70    
Precipitation  
Precipitation 0.53 in 0.08 in 0.89 in (1973)
Month to date precipitation 0.54 0.41  
Year to date precipitation 6.49 4.03  
Sea Level Pressure  
Sea Level Pressure 29.79 in    
Wind  
Wind Speed 12 mph (NE)    
Max Wind Speed 17 mph    
Max Gust Speed 25 mph    
Visibility 3 miles    
Events Fog , Rain , Snow    
T = Trace of Precipitation, MM = Missing Value Source: NWS Daily Summary

Daily Weather History Graph

Daily Weather History Graph

Search for Another Location

Airport:

Trip Planner

Search our weather history database for the weather conditions in past years. The results will help you decide how hot, cold, wet, or windy it might be!

Date:

Astronomy

Mar. 05, 2013 Rise Set
Actual Time 7:14 AM EST 6:44 PM EST
Civil Twilight 6:47 AM EST 7:11 PM EST
Nautical Twilight 6:16 AM EST 7:42 PM EST
Astronomical Twilight 5:44 AM EST 8:14 PM EST
Moon 2:27 AM EST (3/5) 12:21 PM EST (3/5)
Length of Visible Light 12h 23m
Length of Day
11h 29m
Last Quarter, 41% of the Moon is Illuminated
Mar 5
Last Quarter
Mar 11
New
Mar 19
First Quarter
Mar 27
Full
Apr 3
Last Quarter

Hourly Weather History & Observations

Time (EST) Temp. Windchill Dew Point Humidity Pressure Visibility Wind Dir Wind Speed Gust Speed Precip Events Conditions
12:54 AM 34.0 °F 25.0 °F 27.0 °F 75% 29.97 in 10.0 mi East 12.7 mph - N/A   Overcast
2:54 AM 33.1 °F 24.4 °F 28.9 °F 85% 29.94 in 9.0 mi East 11.5 mph - N/A   Overcast
3:54 AM 34.0 °F 25.0 °F 28.9 °F 82% 29.91 in 10.0 mi East 12.7 mph - N/A   Overcast
4:54 AM 34.0 °F 25.0 °F 28.0 °F 79% 29.88 in 10.0 mi East 12.7 mph - N/A   Overcast
5:54 AM 34.0 °F 25.5 °F 28.0 °F 79% 29.89 in 10.0 mi East 11.5 mph - N/A   Overcast
6:54 AM 34.0 °F 25.5 °F 28.0 °F 79% 29.87 in 10.0 mi East 11.5 mph - N/A   Overcast
8:54 AM 34.0 °F 24.2 °F 28.9 °F 82% 29.86 in 10.0 mi ESE 15.0 mph - N/A   Overcast
9:54 AM 34.0 °F 24.2 °F 28.9 °F 82% 29.84 in 10.0 mi ESE 15.0 mph - N/A   Overcast
10:54 AM 34.0 °F 24.2 °F 30.0 °F 85% 29.80 in 8.0 mi East 15.0 mph - 0.00 in Rain Light Rain
11:54 AM 34.0 °F 25.5 °F 30.9 °F 89% 29.79 in 7.0 mi East 11.5 mph - 0.00 in   Overcast
12:54 PM 34.0 °F 26.0 °F 30.0 °F 85% 29.77 in 6.0 mi East 10.4 mph - 0.00 in   Overcast
1:28 PM 33.8 °F 25.8 °F 30.2 °F 87% 29.74 in 2.5 mi East 10.4 mph - 0.01 in   Overcast
1:54 PM 33.1 °F 23.9 °F 30.9 °F 92% 29.73 in 2.0 mi East 12.7 mph - 0.01 in   Overcast
2:54 PM 32.0 °F 26.4 °F 30.9 °F 96% 29.71 in 2.0 mi NE 5.8 mph - 0.03 in Snow Light Snow
3:01 PM 32.0 °F 27.5 °F 30.2 °F 93% 29.71 in 1.0 mi NE 4.6 mph - 0.01 in Snow Light Snow
3:15 PM 32.0 °F 27.5 °F 30.2 °F 93% 29.70 in 0.5 mi NNE 4.6 mph - 0.03 in Fog , Snow Snow
3:54 PM 32.0 °F 27.5 °F 30.9 °F 96% 29.72 in 0.5 mi NNE 4.6 mph - 0.06 in Fog , Snow Snow
4:16 PM 32.0 °F 26.4 °F 30.2 °F 93% 29.71 in 0.2 mi NNE 5.8 mph - 0.03 in Fog , Snow Heavy Snow
4:37 PM 32.0 °F 26.4 °F 30.2 °F 93% 29.71 in 0.5 mi NNE 5.8 mph - 0.05 in Fog , Snow Snow
4:45 PM 32.0 °F 26.4 °F 30.2 °F 93% 29.71 in 0.2 mi North 5.8 mph - 0.07 in Fog , Snow Heavy Snow
4:54 PM 32.0 °F 25.6 °F 30.0 °F 92% 29.72 in 0.2 mi North 6.9 mph - 0.08 in Fog , Snow Heavy Snow
5:54 PM 30.9 °F 22.2 °F 30.0 °F 96% 29.73 in 0.5 mi North 10.4 mph - 0.10 in Fog , Snow Snow
6:18 PM 30.2 °F 21.3 °F 28.4 °F 93% 29.72 in 0.8 mi North 10.4 mph - 0.02 in Snow Light Snow
6:37 PM 30.2 °F 21.9 °F 28.4 °F 93% 29.73 in 1.0 mi North 9.2 mph - 0.03 in Snow Light Snow
6:54 PM 30.0 °F 20.5 °F 28.0 °F 92% 29.75 in 1.2 mi North 11.5 mph - 0.04 in Snow Light Snow
7:16 PM 30.2 °F 21.9 °F 28.4 °F 93% 29.74 in 1.0 mi North 9.2 mph - 0.01 in Snow Light Snow
7:25 PM 30.2 °F 21.9 °F 28.4 °F 93% 29.75 in 0.5 mi North 9.2 mph - 0.02 in Fog , Snow Snow
7:54 PM 30.0 °F 21.7 °F 28.0 °F 92% 29.78 in 0.5 mi North 9.2 mph - 0.04 in Fog , Snow Snow
8:54 PM 28.9 °F 19.8 °F 27.0 °F 92% 29.79 in 1.0 mi North 10.4 mph - 0.06 in Snow Light Snow
9:39 PM 28.4 °F 18.5 °F 24.8 °F 86% 29.78 in 1.2 mi NNE 11.5 mph - 0.03 in Snow Light Snow
9:54 PM 28.0 °F 18.1 °F 25.0 °F 88% 29.81 in 1.2 mi North 11.5 mph - 0.04 in Snow Light Snow
10:04 PM 28.4 °F 19.1 °F 24.8 °F 86% 29.79 in 1.2 mi North 10.4 mph - 0.00 in Snow Light Snow
10:44 PM 28.4 °F 18.5 °F 24.8 °F 86% 29.81 in 1.2 mi North 11.5 mph - 0.03 in Snow Light Snow
10:54 PM 28.0 °F 18.1 °F 25.0 °F 88% 29.83 in 1.0 mi North 11.5 mph - 0.03 in Snow Light Snow
11:07 PM 28.4 °F 17.0 °F 24.8 °F 86% 29.82 in 1.2 mi North 15.0 mph - 0.01 in Snow Light Snow
11:44 PM 28.4 °F 16.6 °F 26.6 °F 93% 29.83 in 0.8 mi North 16.1 mph 23.0 mph 0.03 in Snow Light Snow
11:54 PM 28.9 °F 17.7 °F 26.1 °F 89% 29.85 in 0.8 mi North 15.0 mph 25.3 mph 0.04 in Snow Light Snow